Time,TemperatureF,DewpointF,PressureIn,WindDirection,WindDirectionDegrees,WindSpeedMPH,WindSpeedGustMPH,Humidity,HourlyPrecipIn,Conditions,Clouds,dailyrainin,SolarRadiationWatts/m^2,SoftwareType,DateUTC
2013-06-09 00:02:00,76.3,28.2,-100.00,South,184,0.0,1.0,17,0.52,,,0.51,0.0,meteohub,2013-06-09 04:02:00,
2013-06-09 00:07:00,76.6,28.6,-100.00,South,185,0.0,1.0,17,0.52,,,0.51,0.0,meteohub,2013-06-09 04:07:00,
2013-06-09 00:12:00,76.8,28.8,-100.00,East,80,0.0,3.0,17,0.55,,,0.54,0.0,meteohub,2013-06-09 04:12:00,
2013-06-09 00:17:00,76.8,28.8,-100.00,East,80,1.0,3.0,17,0.55,,,0.55,0.0,meteohub,2013-06-09 04:17:00,
2013-06-09 00:27:00,76.3,28.2,-100.00,East,80,0.0,2.0,17,0.54,,,0.56,0.0,meteohub,2013-06-09 04:27:00,
2013-06-09 00:32:00,75.9,28.0,-100.00,East,80,0.0,2.0,17,0.30,,,0.56,0.0,meteohub,2013-06-09 04:32:00,
2013-06-09 00:37:00,75.9,28.0,-100.00,East,80,2.0,2.0,17,0.30,,,0.56,0.0,meteohub,2013-06-09 04:37:00,
2013-06-09 00:42:00,76.1,28.0,-100.00,East,80,3.0,3.0,17,0.30,,,0.56,0.0,meteohub,2013-06-09 04:42:00,
2013-06-09 00:52:00,76.3,29.7,-100.00,East,80,0.0,4.0,18,0.14,,,0.56,0.0,meteohub,2013-06-09 04:52:00,
2013-06-09 00:57:00,76.3,29.7,-100.00,East,80,0.0,4.0,18,0.14,,,0.56,0.0,meteohub,2013-06-09 04:57:00,
2013-06-09 01:02:00,76.5,29.8,-100.00,East,80,0.0,3.0,18,0.03,,,0.56,0.0,meteohub,2013-06-09 05:02:00,
2013-06-09 01:07:00,76.5,29.8,-100.00,East,80,0.0,3.0,18,0.03,,,0.56,0.0,meteohub,2013-06-09 05:07:00,
2013-06-09 01:12:00,76.8,30.0,-100.00,East,80,0.0,3.0,18,0.03,,,0.56,0.0,meteohub,2013-06-09 05:12:00,
2013-06-09 01:17:00,76.8,30.0,-100.00,ESE,112,1.0,1.0,18,0.01,,,0.56,0.0,meteohub,2013-06-09 05:17:00,
2013-06-09 01:27:00,77.5,30.7,-100.00,SSE,153,3.0,4.0,18,0.00,,,0.56,0.0,meteohub,2013-06-09 05:27:00,
2013-06-09 01:32:00,77.5,30.7,-100.00,SSE,161,2.0,4.0,18,0.00,,,0.56,0.0,meteohub,2013-06-09 05:32:00,
2013-06-09 01:42:00,77.9,29.7,-100.00,South,175,0.0,5.0,17,0.00,,,0.56,0.0,meteohub,2013-06-09 05:42:00,
2013-06-09 01:47:00,78.3,29.8,-100.00,South,175,1.0,5.0,17,0.00,,,0.56,0.0,meteohub,2013-06-09 05:47:00,
2013-06-09 01:57:00,79.0,28.9,-100.00,SSE,168,1.0,7.0,16,0.00,,,0.56,0.0,meteohub,2013-06-09 05:57:00,
2013-06-09 02:02:00,79.2,27.5,-100.00,SSE,164,1.0,7.0,15,0.00,,,0.56,0.0,meteohub,2013-06-09 06:02:00,
2013-06-09 02:07:00,79.3,26.1,-100.00,SSE,157,3.0,7.0,14,0.00,,,0.56,0.0,meteohub,2013-06-09 06:07:00,
2013-06-09 02:17:00,80.1,22.8,-100.00,SSE,148,0.0,7.0,12,0.00,,,0.56,0.0,meteohub,2013-06-09 06:17:00,
2013-06-09 02:27:00,80.4,23.2,-100.00,South,191,1.0,10.0,12,0.00,,,0.56,0.0,meteohub,2013-06-09 06:27:00,
2013-06-09 02:32:00,80.6,21.2,-100.00,South,178,4.0,11.0,11,0.00,,,0.56,0.0,meteohub,2013-06-09 06:32:00,
2013-06-09 02:42:00,80.6,21.2,-100.00,SE,138,2.0,11.0,11,0.00,,,0.56,0.0,meteohub,2013-06-09 06:42:00,
2013-06-09 02:47:00,80.8,19.2,-100.00,South,179,4.0,11.0,10,0.00,,,0.56,0.0,meteohub,2013-06-09 06:47:00,
2013-06-09 02:52:00,81.1,19.4,-100.00,South,174,1.0,10.0,10,0.00,,,0.56,0.0,meteohub,2013-06-09 06:52:00,
2013-06-09 02:57:00,81.0,19.2,-100.00,SSE,159,3.0,10.0,10,0.00,,,0.56,0.0,meteohub,2013-06-09 06:57:00,
2013-06-09 03:02:00,81.0,19.2,-100.00,SE,144,4.0,10.0,10,0.00,,,0.56,0.0,meteohub,2013-06-09 07:02:00,
2013-06-09 03:07:00,80.8,19.2,-100.00,South,178,2.0,10.0,10,0.00,,,0.56,0.0,meteohub,2013-06-09 07:07:00,
2013-06-09 03:12:00,81.0,19.2,-100.00,South,179,3.0,6.0,10,0.00,,,0.56,0.0,meteohub,2013-06-09 07:12:00,
2013-06-09 03:17:00,81.0,19.2,-100.00,South,178,5.0,6.0,10,0.00,,,0.56,0.0,meteohub,2013-06-09 07:17:00,
2013-06-09 03:27:00,81.0,19.2,-100.00,South,180,4.0,11.0,10,0.00,,,0.56,0.0,meteohub,2013-06-09 07:27:00,
2013-06-09 03:37:00,81.1,19.4,-100.00,South,180,6.0,11.0,10,0.00,,,0.56,0.0,meteohub,2013-06-09 07:37:00,
2013-06-09 03:42:00,81.1,19.4,-100.00,SSE,159,0.0,7.0,10,0.00,,,0.56,0.0,meteohub,2013-06-09 07:42:00,
2013-06-09 03:47:00,81.0,19.2,-100.00,SSE,152,5.0,7.0,10,0.00,,,0.56,0.0,meteohub,2013-06-09 07:47:00,
2013-06-09 03:52:00,81.1,19.4,-100.00,SSE,161,2.0,7.0,10,0.00,,,0.56,0.0,meteohub,2013-06-09 07:52:00,
2013-06-09 03:57:00,81.1,19.4,-100.00,SSW,210,3.0,7.0,10,0.00,,,0.56,0.0,meteohub,2013-06-09 07:57:00,
2013-06-09 04:02:00,81.1,19.4,-100.00,South,184,3.0,10.0,10,0.00,,,0.56,0.0,meteohub,2013-06-09 08:02:00,
2013-06-09 04:07:00,81.1,19.4,-100.00,South,172,4.0,10.0,10,0.00,,,0.56,0.0,meteohub,2013-06-09 08:07:00,
2013-06-09 04:12:00,81.1,19.4,-100.00,South,172,3.0,11.0,10,0.00,,,0.56,0.0,meteohub,2013-06-09 08:12:00,
2013-06-09 04:22:00,81.3,17.1,-100.00,South,186,3.0,10.0,9,0.00,,,0.56,0.0,meteohub,2013-06-09 08:22:00,
2013-06-09 04:27:00,81.3,17.1,-100.00,South,190,5.0,10.0,9,0.00,,,0.56,0.0,meteohub,2013-06-09 08:27:00,
2013-06-09 04:37:00,81.3,19.6,-100.00,East,86,2.0,8.0,10,0.00,,,0.56,0.0,meteohub,2013-06-09 08:37:00,
2013-06-09 04:47:00,81.3,19.6,-100.00,South,189,3.0,10.0,10,0.00,,,0.56,0.0,meteohub,2013-06-09 08:47:00,
2013-06-09 04:52:00,81.7,17.4,-100.00,SSE,153,6.0,10.0,9,0.00,,,0.56,0.0,meteohub,2013-06-09 08:52:00,
2013-06-09 04:57:00,81.5,17.2,-100.00,SSW,195,3.0,10.0,9,0.00,,,0.56,0.0,meteohub,2013-06-09 08:57:00,
2013-06-09 05:07:00,81.1,19.4,-100.00,South,190,4.0,10.0,10,0.00,,,0.56,0.0,meteohub,2013-06-09 09:07:00,
2013-06-09 05:12:00,81.7,17.4,-100.00,South,178,2.0,10.0,9,0.00,,,0.56,0.0,meteohub,2013-06-09 09:12:00,
2013-06-09 05:17:00,81.5,17.2,-100.00,South,182,6.0,10.0,9,0.00,,,0.56,0.0,meteohub,2013-06-09 09:17:00,
2013-06-09 05:22:00,81.3,19.6,-100.00,South,176,3.0,10.0,10,0.00,,,0.56,0.0,meteohub,2013-06-09 09:22:00,
2013-06-09 05:27:00,81.1,19.4,-100.00,ESE,123,5.0,10.0,10,0.00,,,0.56,0.0,meteohub,2013-06-09 09:27:00,
2013-06-09 05:32:00,81.3,17.1,-100.00,SSE,153,6.0,10.0,9,0.00,,,0.56,0.0,meteohub,2013-06-09 09:32:00,
2013-06-09 05:37:00,81.3,17.1,-100.00,SSW,194,7.0,10.0,9,0.00,,,0.56,0.0,meteohub,2013-06-09 09:37:00,
2013-06-09 05:42:00,81.3,17.1,-100.00,SSE,159,4.0,12.0,9,0.00,,,0.56,0.0,meteohub,2013-06-09 09:42:00,
2013-06-09 05:47:00,81.7,17.4,-100.00,SSE,161,1.0,12.0,9,0.00,,,0.56,0.0,meteohub,2013-06-09 09:47:00,
2013-06-09 05:52:00,81.3,17.1,-100.00,South,182,6.0,12.0,9,0.00,,,0.56,0.0,meteohub,2013-06-09 09:52:00,
2013-06-09 05:57:00,81.3,17.1,-100.00,South,182,4.0,12.0,9,0.00,,,0.56,0.0,meteohub,2013-06-09 09:57:00,
2013-06-09 06:02:00,81.7,17.4,-100.00,SSW,197,7.0,11.0,9,0.00,,,0.56,0.0,meteohub,2013-06-09 10:02:00,
2013-06-09 06:07:00,81.7,17.4,-100.00,SE,140,6.0,11.0,9,0.00,,,0.56,0.0,meteohub,2013-06-09 10:07:00,
2013-06-09 06:12:00,81.5,17.2,-100.00,South,189,4.0,10.0,9,0.00,,,0.56,0.0,meteohub,2013-06-09 10:12:00,
2013-06-09 06:17:00,81.3,17.1,-100.00,SE,130,3.0,10.0,9,0.00,,,0.56,0.0,meteohub,2013-06-09 10:17:00,
2013-06-09 06:27:00,81.5,17.2,-100.00,South,176,5.0,10.0,9,0.00,,,0.56,5.0,meteohub,2013-06-09 10:27:00,
2013-06-09 06:32:00,81.7,17.4,-100.00,South,170,2.0,10.0,9,0.00,,,0.56,7.0,meteohub,2013-06-09 10:32:00,
2013-06-09 06:37:00,81.5,17.2,-100.00,South,181,4.0,11.0,9,0.00,,,0.56,12.0,meteohub,2013-06-09 10:37:00,
2013-06-09 06:42:00,81.3,17.1,-100.00,SSE,161,2.0,11.0,9,0.00,,,0.56,21.0,meteohub,2013-06-09 10:42:00,
2013-06-09 06:52:00,81.9,17.4,-100.00,South,171,5.0,10.0,9,0.00,,,0.56,33.0,meteohub,2013-06-09 10:52:00,
2013-06-09 06:57:00,81.7,17.4,-100.00,SSE,147,4.0,10.0,9,0.00,,,0.56,42.0,meteohub,2013-06-09 10:57:00,
2013-06-09 07:02:00,81.7,17.4,-100.00,SSE,153,4.0,10.0,9,0.00,,,0.56,49.0,meteohub,2013-06-09 11:02:00,
2013-06-09 07:07:00,81.7,17.4,-100.00,SSE,161,3.0,10.0,9,0.00,,,0.56,67.0,meteohub,2013-06-09 11:07:00,
2013-06-09 07:12:00,82.0,17.6,-100.00,South,177,6.0,10.0,9,0.00,,,0.56,54.0,meteohub,2013-06-09 11:12:00,
2013-06-09 07:22:00,81.9,17.4,-100.00,South,175,5.0,11.0,9,0.00,,,0.56,67.0,meteohub,2013-06-09 11:22:00,
2013-06-09 07:27:00,81.9,17.4,-100.00,SSE,161,3.0,11.0,9,0.00,,,0.56,72.0,meteohub,2013-06-09 11:27:00,
2013-06-09 07:32:00,81.9,17.4,-100.00,SSE,167,1.0,11.0,9,0.00,,,0.56,77.0,meteohub,2013-06-09 11:32:00,
2013-06-09 07:37:00,81.9,17.4,-100.00,SSE,158,3.0,11.0,9,0.00,,,0.56,79.0,meteohub,2013-06-09 11:37:00,
2013-06-09 07:42:00,81.9,14.7,-100.00,SSE,167,2.0,10.0,8,0.00,,,0.56,84.0,meteohub,2013-06-09 11:42:00,
2013-06-09 07:47:00,82.0,14.9,-100.00,SSE,162,3.0,10.0,8,0.00,,,0.56,86.0,meteohub,2013-06-09 11:47:00,
2013-06-09 07:52:00,82.0,14.9,-100.00,SSE,161,1.0,9.0,8,0.00,,,0.56,160.0,meteohub,2013-06-09 11:52:00,
2013-06-09 08:02:00,82.2,15.1,-100.00,SSE,153,3.0,9.0,8,0.00,,,0.56,163.0,meteohub,2013-06-09 12:02:00,
2013-06-09 08:07:00,82.6,15.3,-100.00,SSE,159,4.0,9.0,8,0.00,,,0.56,141.0,meteohub,2013-06-09 12:07:00,
2013-06-09 08:12:00,82.9,15.6,-100.00,SSE,153,0.0,8.0,8,0.00,,,0.56,343.0,meteohub,2013-06-09 12:12:00,
2013-06-09 08:17:00,83.5,16.0,-100.00,SSW,195,7.0,8.0,8,0.00,,,0.56,288.0,meteohub,2013-06-09 12:17:00,
2013-06-09 08:22:00,83.5,16.0,-100.00,South,190,2.0,10.0,8,0.00,,,0.56,309.0,meteohub,2013-06-09 12:22:00,
2013-06-09 08:27:00,83.7,16.2,-100.00,South,188,1.0,10.0,8,0.00,,,0.56,374.0,meteohub,2013-06-09 12:27:00,
2013-06-09 08:32:00,84.2,16.5,-100.00,South,190,4.0,10.0,8,0.00,,,0.56,392.0,meteohub,2013-06-09 12:32:00,
2013-06-09 08:37:00,84.4,16.7,-100.00,ESE,123,4.0,10.0,8,0.00,,,0.56,406.0,meteohub,2013-06-09 12:37:00,
2013-06-09 08:42:00,84.6,19.6,-100.00,SSW,196,5.0,10.0,9,0.00,,,0.56,410.0,meteohub,2013-06-09 12:42:00,
2013-06-09 08:47:00,84.7,19.6,-100.00,SSE,168,3.0,10.0,9,0.00,,,0.56,411.0,meteohub,2013-06-09 12:47:00,
2013-06-09 08:52:00,84.4,19.4,-100.00,SE,130,6.0,10.0,9,0.00,,,0.56,114.0,meteohub,2013-06-09 12:52:00,
2013-06-09 08:57:00,84.4,16.7,-100.00,SSE,157,2.0,10.0,8,0.00,,,0.56,206.0,meteohub,2013-06-09 12:57:00,
2013-06-09 09:02:00,84.9,17.1,-100.00,SSW,196,5.0,10.0,8,0.00,,,0.56,504.0,meteohub,2013-06-09 13:02:00,
2013-06-09 09:07:00,84.7,19.6,-100.00,South,175,5.0,11.0,9,0.00,,,0.56,522.0,meteohub,2013-06-09 13:07:00,
2013-06-09 09:17:00,85.5,20.1,-100.00,SSW,198,6.0,13.0,9,0.00,,,0.56,564.0,meteohub,2013-06-09 13:17:00,
2013-06-09 09:22:00,85.3,22.6,-100.00,South,188,2.0,13.0,10,0.00,,,0.56,584.0,meteohub,2013-06-09 13:22:00,
2013-06-09 09:27:00,84.9,22.3,-100.00,SSW,193,9.0,13.0,10,0.00,,,0.56,603.0,meteohub,2013-06-09 13:27:00,
2013-06-09 09:37:00,85.3,24.8,-100.00,ESE,113,6.0,13.0,11,0.00,,,0.56,642.0,meteohub,2013-06-09 13:37:00,
2013-06-09 09:42:00,85.3,22.6,-100.00,SSE,156,9.0,13.0,10,0.00,,,0.56,605.0,meteohub,2013-06-09 13:42:00,
2013-06-09 09:47:00,85.1,19.9,-100.00,South,176,6.0,11.0,9,0.00,,,0.56,784.0,meteohub,2013-06-09 13:47:00,
2013-06-09 09:52:00,85.5,25.0,-100.00,SSE,155,9.0,11.0,11,0.00,,,0.56,784.0,meteohub,2013-06-09 13:52:00,
2013-06-09 09:57:00,85.5,27.1,-100.00,South,188,5.0,13.0,12,0.00,,,0.56,761.0,meteohub,2013-06-09 13:57:00,
2013-06-09 10:02:00,85.5,22.6,-100.00,SSE,148,7.0,13.0,10,0.00,,,0.56,803.0,meteohub,2013-06-09 14:02:00,
2013-06-09 10:07:00,86.0,23.2,-100.00,South,188,4.0,12.0,10,0.00,,,0.56,782.0,meteohub,2013-06-09 14:07:00,
2013-06-09 10:12:00,85.5,32.5,-100.00,SSE,153,6.0,12.0,15,0.00,,,0.56,392.0,meteohub,2013-06-09 14:12:00,
2013-06-09 10:17:00,85.1,24.6,-100.00,SSW,197,6.0,14.0,11,0.00,,,0.56,889.0,meteohub,2013-06-09 14:17:00,
2013-06-09 10:22:00,86.0,25.3,-100.00,South,184,1.0,14.0,11,0.00,,,0.56,844.0,meteohub,2013-06-09 14:22:00,
2013-06-09 10:27:00,85.6,32.7,-100.00,South,182,4.0,14.0,15,0.00,,,0.56,793.0,meteohub,2013-06-09 14:27:00,
2013-06-09 10:37:00,85.8,31.1,-100.00,SSE,167,5.0,14.0,14,0.00,,,0.56,814.0,meteohub,2013-06-09 14:37:00,
2013-06-09 10:42:00,86.2,31.5,-100.00,SSE,150,6.0,14.0,14,0.00,,,0.56,823.0,meteohub,2013-06-09 14:42:00,
2013-06-09 10:52:00,85.5,41.0,-100.00,South,174,4.0,11.0,21,0.00,,,0.56,849.0,meteohub,2013-06-09 14:52:00,
2013-06-09 10:57:00,85.5,41.0,-100.00,South,184,9.0,13.0,21,0.00,,,0.56,831.0,meteohub,2013-06-09 14:57:00,
2013-06-09 11:02:00,85.5,38.5,-100.00,SSW,198,11.0,13.0,19,0.00,,,0.56,840.0,meteohub,2013-06-09 15:02:00,
2013-06-09 11:07:00,84.9,39.4,-100.00,SSW,207,5.0,14.0,20,0.00,,,0.56,840.0,meteohub,2013-06-09 15:07:00,
2013-06-09 11:12:00,85.5,37.0,-100.00,SSE,167,6.0,14.0,18,0.00,,,0.56,856.0,meteohub,2013-06-09 15:12:00,
2013-06-09 11:17:00,85.6,39.9,-100.00,South,189,4.0,14.0,20,0.00,,,0.56,854.0,meteohub,2013-06-09 15:17:00,
2013-06-09 11:22:00,85.3,43.3,-100.00,SSE,150,10.0,14.0,23,0.00,,,0.56,874.0,meteohub,2013-06-09 15:22:00,
2013-06-09 11:27:00,85.6,38.7,-100.00,SW,217,5.0,14.0,19,0.00,,,0.56,888.0,meteohub,2013-06-09 15:27:00,
2013-06-09 11:32:00,85.5,37.0,-100.00,SE,144,12.0,14.0,18,0.00,,,0.56,928.0,meteohub,2013-06-09 15:32:00,
2013-06-09 11:37:00,85.3,39.7,-100.00,South,188,13.0,14.0,20,0.00,,,0.56,925.0,meteohub,2013-06-09 15:37:00,
2013-06-09 11:47:00,86.2,39.0,-100.00,SSW,198,7.0,14.0,19,0.00,,,0.56,925.0,meteohub,2013-06-09 15:47:00,
2013-06-09 11:52:00,85.6,47.8,-100.00,SSE,148,3.0,14.0,27,0.00,,,0.56,902.0,meteohub,2013-06-09 15:52:00,
2013-06-09 11:57:00,86.0,42.8,-100.00,SSW,194,9.0,14.0,22,0.00,,,0.56,946.0,meteohub,2013-06-09 15:57:00,
2013-06-09 12:02:00,85.8,44.8,-100.00,SSE,149,6.0,14.0,24,0.00,,,0.56,928.0,meteohub,2013-06-09 16:02:00,
2013-06-09 12:07:00,85.8,46.9,-100.00,South,179,4.0,15.0,26,0.00,,,0.56,954.0,meteohub,2013-06-09 16:07:00,
2013-06-09 12:12:00,85.5,49.6,-100.00,SSE,161,8.0,15.0,29,0.00,,,0.56,970.0,meteohub,2013-06-09 16:12:00,
2013-06-09 12:17:00,85.6,42.4,-100.00,South,182,2.0,15.0,22,0.00,,,0.56,970.0,meteohub,2013-06-09 16:17:00,
2013-06-09 12:22:00,86.7,39.6,-100.00,SSW,195,5.0,15.0,19,0.00,,,0.56,986.0,meteohub,2013-06-09 16:22:00,
2013-06-09 12:27:00,85.8,49.8,-100.00,SSW,200,6.0,14.0,29,0.00,,,0.56,979.0,meteohub,2013-06-09 16:27:00,
2013-06-09 12:32:00,86.4,44.2,-100.00,SSE,163,5.0,14.0,23,0.00,,,0.56,986.0,meteohub,2013-06-09 16:32:00,
2013-06-09 12:42:00,86.2,45.1,-100.00,SSW,194,7.0,14.0,24,0.00,,,0.56,972.0,meteohub,2013-06-09 16:42:00,
2013-06-09 12:47:00,86.4,45.3,-100.00,South,181,7.0,12.0,24,0.00,,,0.56,967.0,meteohub,2013-06-09 16:47:00,
2013-06-09 12:57:00,86.4,48.4,-100.00,South,172,4.0,12.0,27,0.00,,,0.56,998.0,meteohub,2013-06-09 16:57:00,
2013-06-09 13:07:00,86.2,41.7,-100.00,SSE,153,7.0,13.0,21,0.00,,,0.56,1004.0,meteohub,2013-06-09 17:07:00,
2013-06-09 13:12:00,86.5,40.6,-100.00,SSE,147,7.0,13.0,20,0.00,,,0.56,995.0,meteohub,2013-06-09 17:12:00,
2013-06-09 13:17:00,86.7,39.6,-100.00,SSE,155,5.0,13.0,19,0.00,,,0.56,1014.0,meteohub,2013-06-09 17:17:00,
2013-06-09 13:22:00,87.1,39.7,-100.00,South,186,7.0,13.0,19,0.00,,,0.56,1016.0,meteohub,2013-06-09 17:22:00,
2013-06-09 13:27:00,86.7,45.7,-100.00,SSW,196,12.0,13.0,24,0.00,,,0.56,1014.0,meteohub,2013-06-09 17:27:00,
2013-06-09 13:32:00,86.0,48.2,-100.00,SSW,201,13.0,13.0,27,0.00,,,0.56,1013.0,meteohub,2013-06-09 17:32:00,
2013-06-09 13:42:00,86.5,39.4,-100.00,SW,219,5.0,14.0,19,0.00,,,0.56,1013.0,meteohub,2013-06-09 17:42:00,
2013-06-09 13:47:00,86.9,43.5,-100.00,SSW,203,9.0,15.0,22,0.00,,,0.56,1018.0,meteohub,2013-06-09 17:47:00,
2013-06-09 13:57:00,86.5,47.7,-100.00,SSE,160,7.0,14.0,26,0.00,,,0.56,1044.0,meteohub,2013-06-09 17:57:00,
2013-06-09 14:02:00,87.1,42.4,-100.00,SE,133,8.0,14.0,21,0.00,,,0.56,1255.0,meteohub,2013-06-09 18:02:00,
2013-06-09 14:07:00,86.7,39.6,-100.00,SSE,153,4.0,13.0,19,0.00,,,0.56,309.0,meteohub,2013-06-09 18:07:00,
2013-06-09 14:17:00,85.8,29.3,-100.00,SSE,160,13.0,13.0,13,0.00,,,0.56,118.0,meteohub,2013-06-09 18:17:00,
2013-06-09 14:27:00,82.2,15.1,-100.00,South,187,0.0,18.0,8,0.09,,,0.62,202.0,meteohub,2013-06-09 18:27:00,
2013-06-09 14:32:00,82.0,17.6,-100.00,South,169,4.0,18.0,9,0.09,,,0.67,237.0,meteohub,2013-06-09 18:32:00,
2013-06-09 14:37:00,82.2,20.3,-100.00,South,183,5.0,15.0,10,0.11,,,0.67,315.0,meteohub,2013-06-09 18:37:00,
2013-06-09 14:47:00,84.6,16.9,-100.00,South,178,5.0,10.0,8,0.11,,,0.67,1004.0,meteohub,2013-06-09 18:47:00,
2013-06-09 14:52:00,85.1,14.2,-100.00,South,182,5.0,10.0,7,0.11,,,0.67,997.0,meteohub,2013-06-09 18:52:00,
2013-06-09 14:57:00,85.1,14.2,-100.00,SSE,159,4.0,12.0,7,0.11,,,0.67,990.0,meteohub,2013-06-09 18:57:00,
2013-06-09 15:07:00,86.0,20.7,-100.00,SSW,198,11.0,12.0,9,0.11,,,0.67,972.0,meteohub,2013-06-09 19:07:00,
2013-06-09 15:12:00,85.8,23.0,-100.00,SSE,160,6.0,12.0,10,0.11,,,0.67,976.0,meteohub,2013-06-09 19:12:00,
2013-06-09 15:17:00,86.4,18.1,-100.00,South,173,8.0,13.0,8,0.11,,,0.67,1076.0,meteohub,2013-06-09 19:17:00,
2013-06-09 15:27:00,85.6,20.3,-100.00,SSE,149,7.0,13.0,9,0.02,,,0.67,304.0,meteohub,2013-06-09 19:27:00,
2013-06-09 15:32:00,84.7,19.6,-100.00,SSE,157,9.0,13.0,9,0.02,,,0.67,248.0,meteohub,2013-06-09 19:32:00,
2013-06-09 15:37:00,83.8,19.0,-100.00,SE,142,3.0,16.0,9,0.00,,,0.67,334.0,meteohub,2013-06-09 19:37:00,
2013-06-09 15:47:00,85.5,20.1,-100.00,ESE,118,8.0,17.0,9,0.00,,,0.67,983.0,meteohub,2013-06-09 19:47:00,
2013-06-09 15:52:00,85.6,17.6,-100.00,South,187,4.0,17.0,8,0.00,,,0.67,436.0,meteohub,2013-06-09 19:52:00,
2013-06-09 16:02:00,85.3,20.1,-100.00,SSW,194,4.0,15.0,9,0.00,,,0.67,921.0,meteohub,2013-06-09 20:02:00,
2013-06-09 16:07:00,86.4,20.8,-100.00,SSW,197,9.0,13.0,9,0.00,,,0.67,912.0,meteohub,2013-06-09 20:07:00,
2013-06-09 16:12:00,85.6,27.1,-100.00,South,188,9.0,13.0,12,0.00,,,0.67,824.0,meteohub,2013-06-09 20:12:00,
2013-06-09 16:22:00,85.6,38.7,-100.00,SSE,159,4.0,12.0,19,0.00,,,0.67,323.0,meteohub,2013-06-09 20:22:00,
2013-06-09 16:27:00,85.6,34.3,-100.00,SSE,163,3.0,13.0,16,0.00,,,0.67,659.0,meteohub,2013-06-09 20:27:00,
2013-06-09 16:32:00,86.5,25.9,-100.00,South,181,5.0,13.0,11,0.00,,,0.67,722.0,meteohub,2013-06-09 20:32:00,
2013-06-09 16:37:00,86.5,21.0,-100.00,SSE,149,4.0,13.0,9,0.00,,,0.67,752.0,meteohub,2013-06-09 20:37:00,
2013-06-09 16:42:00,86.7,21.2,-100.00,SE,141,5.0,13.0,9,0.00,,,0.67,877.0,meteohub,2013-06-09 20:42:00,
2013-06-09 16:47:00,86.2,20.7,-100.00,South,169,5.0,14.0,9,0.00,,,0.67,376.0,meteohub,2013-06-09 20:47:00,
2013-06-09 16:52:00,86.2,23.2,-100.00,SE,134,8.0,14.0,10,0.00,,,0.67,318.0,meteohub,2013-06-09 20:52:00,
2013-06-09 16:57:00,85.8,27.3,-100.00,SE,130,6.0,14.0,12,0.00,,,0.67,214.0,meteohub,2013-06-09 20:57:00,
2013-06-09 17:02:00,85.5,22.6,-100.00,South,178,7.0,14.0,10,0.00,,,0.67,290.0,meteohub,2013-06-09 21:02:00,
2013-06-09 17:07:00,85.6,20.3,-100.00,SW,217,6.0,11.0,9,0.00,,,0.67,362.0,meteohub,2013-06-09 21:07:00,
2013-06-09 17:12:00,86.2,20.7,-100.00,SSW,213,6.0,11.0,9,0.00,,,0.67,779.0,meteohub,2013-06-09 21:12:00,
2013-06-09 17:17:00,86.5,23.5,-100.00,South,183,6.0,13.0,10,0.00,,,0.67,668.0,meteohub,2013-06-09 21:17:00,
2013-06-09 17:22:00,86.7,25.9,-100.00,South,186,5.0,13.0,11,0.00,,,0.67,508.0,meteohub,2013-06-09 21:22:00,
2013-06-09 17:27:00,86.7,25.9,-100.00,SSE,167,3.0,12.0,11,0.00,,,0.67,543.0,meteohub,2013-06-09 21:27:00,
2013-06-09 17:32:00,86.5,27.9,-100.00,SSW,198,5.0,12.0,12,0.00,,,0.67,564.0,meteohub,2013-06-09 21:32:00,
2013-06-09 17:37:00,87.1,26.2,-100.00,SW,215,12.0,12.0,11,0.00,,,0.67,529.0,meteohub,2013-06-09 21:37:00,
2013-06-09 17:47:00,86.4,23.4,-100.00,SE,141,4.0,15.0,10,0.00,,,0.67,246.0,meteohub,2013-06-09 21:47:00,
2013-06-09 17:57:00,85.6,25.2,-100.00,South,190,9.0,13.0,11,0.00,,,0.67,202.0,meteohub,2013-06-09 21:57:00,
2013-06-09 18:02:00,85.6,22.8,-100.00,South,170,11.0,13.0,10,0.00,,,0.67,506.0,meteohub,2013-06-09 22:02:00,
2013-06-09 18:07:00,85.6,20.3,-100.00,South,178,4.0,12.0,9,0.00,,,0.67,123.0,meteohub,2013-06-09 22:07:00,
2013-06-09 18:17:00,85.6,27.1,-100.00,South,191,8.0,12.0,12,0.00,,,0.67,325.0,meteohub,2013-06-09 22:17:00,
2013-06-09 18:22:00,86.0,27.5,-100.00,South,183,5.0,12.0,12,0.00,,,0.67,323.0,meteohub,2013-06-09 22:22:00,
2013-06-09 18:32:00,85.6,27.1,-100.00,SSE,154,2.0,11.0,12,0.00,,,0.67,90.0,meteohub,2013-06-09 22:32:00,
2013-06-09 18:37:00,85.6,25.2,-100.00,SSW,196,6.0,11.0,11,0.00,,,0.67,234.0,meteohub,2013-06-09 22:37:00,
2013-06-09 18:42:00,85.5,25.0,-100.00,SSE,163,5.0,13.0,11,0.00,,,0.67,227.0,meteohub,2013-06-09 22:42:00,
2013-06-09 18:47:00,85.5,25.0,-100.00,SSE,150,7.0,13.0,11,0.00,,,0.67,214.0,meteohub,2013-06-09 22:47:00,
2013-06-09 18:57:00,85.6,27.1,-100.00,South,186,7.0,13.0,12,0.00,,,0.67,156.0,meteohub,2013-06-09 22:57:00,
2013-06-09 19:02:00,85.3,27.0,-100.00,SE,144,9.0,12.0,12,0.00,,,0.67,114.0,meteohub,2013-06-09 23:02:00,
2013-06-09 19:07:00,84.9,26.6,-100.00,SE,130,9.0,12.0,12,0.00,,,0.67,84.0,meteohub,2013-06-09 23:07:00,
2013-06-09 19:12:00,84.7,26.4,-100.00,SSE,155,5.0,12.0,12,0.00,,,0.67,65.0,meteohub,2013-06-09 23:12:00,
2013-06-09 19:17:00,84.7,26.4,-100.00,SE,134,8.0,12.0,12,0.00,,,0.67,83.0,meteohub,2013-06-09 23:17:00,
2013-06-09 19:22:00,84.7,26.4,-100.00,SSE,162,9.0,12.0,12,0.00,,,0.67,58.0,meteohub,2013-06-09 23:22:00,
2013-06-09 19:27:00,84.6,21.9,-100.00,SSE,168,4.0,11.0,10,0.00,,,0.67,39.0,meteohub,2013-06-09 23:27:00,
2013-06-09 19:32:00,84.6,21.9,-100.00,South,187,6.0,11.0,10,0.00,,,0.67,32.0,meteohub,2013-06-09 23:32:00,
2013-06-09 19:37:00,84.2,21.7,-100.00,SSE,158,8.0,11.0,10,0.00,,,0.67,19.0,meteohub,2013-06-09 23:37:00,
2013-06-09 19:42:00,84.4,21.9,-100.00,South,187,6.0,11.0,10,0.00,,,0.67,16.0,meteohub,2013-06-09 23:42:00,
2013-06-09 19:52:00,84.0,21.6,-100.00,South,182,5.0,11.0,10,0.00,,,0.67,11.0,meteohub,2013-06-09 23:52:00,
2013-06-09 19:57:00,83.8,19.0,-100.00,SSE,165,2.0,10.0,9,0.00,,,0.67,7.0,meteohub,2013-06-09 23:57:00,
2013-06-09 20:02:00,84.0,19.0,-100.00,SSE,164,6.0,10.0,9,0.00,,,0.67,7.0,meteohub,2013-06-10 00:02:00,
2013-06-09 20:07:00,83.8,16.3,-100.00,South,179,2.0,10.0,8,0.00,,,0.67,5.0,meteohub,2013-06-10 00:07:00,
2013-06-09 20:12:00,83.7,16.2,-100.00,SE,134,6.0,10.0,8,0.00,,,0.00,0.0,meteohub,2013-06-10 00:12:00,
2013-06-09 20:22:00,83.7,16.2,-100.00,South,178,2.0,10.0,8,0.00,,,0.00,0.0,meteohub,2013-06-10 00:22:00,
2013-06-09 20:27:00,83.5,16.0,-100.00,South,178,4.0,10.0,8,0.00,,,0.00,0.0,meteohub,2013-06-10 00:27:00,
2013-06-09 20:32:00,83.1,15.8,-100.00,South,184,4.0,10.0,8,0.00,,,0.00,0.0,meteohub,2013-06-10 00:32:00,
2013-06-09 20:37:00,83.3,15.8,-100.00,SSW,208,3.0,10.0,8,0.00,,,0.00,0.0,meteohub,2013-06-10 00:37:00,
2013-06-09 20:42:00,83.5,16.0,-100.00,SE,138,6.0,10.0,8,0.00,,,0.00,0.0,meteohub,2013-06-10 00:42:00,
2013-06-09 20:52:00,83.1,15.8,-100.00,South,182,5.0,10.0,8,0.00,,,0.00,0.0,meteohub,2013-06-10 00:52:00,
2013-06-09 20:57:00,83.1,15.8,-100.00,SSW,198,4.0,9.0,8,0.00,,,0.00,0.0,meteohub,2013-06-10 00:57:00,
2013-06-09 21:02:00,83.5,16.0,-100.00,SSE,163,4.0,9.0,8,0.00,,,0.00,0.0,meteohub,2013-06-10 01:02:00,
2013-06-09 21:07:00,83.5,16.0,-100.00,SSE,148,3.0,10.0,8,0.00,,,0.00,0.0,meteohub,2013-06-10 01:07:00,
2013-06-09 21:12:00,83.1,15.8,-100.00,SSE,153,3.0,10.0,8,0.00,,,0.00,0.0,meteohub,2013-06-10 01:12:00,
2013-06-09 21:17:00,83.1,15.8,-100.00,SSE,158,3.0,10.0,8,0.00,,,0.00,0.0,meteohub,2013-06-10 01:17:00,
2013-06-09 21:22:00,83.1,15.8,-100.00,South,188,6.0,10.0,8,0.00,,,0.00,0.0,meteohub,2013-06-10 01:22:00,
2013-06-09 21:27:00,83.5,16.0,-100.00,South,188,7.0,12.0,8,0.00,,,0.00,0.0,meteohub,2013-06-10 01:27:00,
2013-06-09 21:32:00,83.1,15.8,-100.00,SSE,155,5.0,12.0,8,0.00,,,0.00,0.0,meteohub,2013-06-10 01:32:00,
2013-06-09 21:37:00,83.1,15.8,-100.00,SSE,165,0.0,10.0,8,0.00,,,0.00,0.0,meteohub,2013-06-10 01:37:00,
2013-06-09 21:42:00,82.9,15.6,-100.00,SE,144,4.0,10.0,8,0.00,,,0.00,0.0,meteohub,2013-06-10 01:42:00,
2013-06-09 21:47:00,82.9,15.6,-100.00,SSW,204,3.0,10.0,8,0.00,,,0.00,0.0,meteohub,2013-06-10 01:47:00,
2013-06-09 21:52:00,82.9,15.6,-100.00,South,175,3.0,10.0,8,0.00,,,0.00,0.0,meteohub,2013-06-10 01:52:00,
2013-06-09 21:57:00,82.9,15.6,-100.00,SE,130,4.0,11.0,8,0.00,,,0.00,0.0,meteohub,2013-06-10 01:57:00,
2013-06-09 22:02:00,82.8,15.4,-100.00,SSW,198,4.0,11.0,8,0.00,,,0.00,0.0,meteohub,2013-06-10 02:02:00,
2013-06-09 22:07:00,82.8,15.4,-100.00,South,186,5.0,11.0,8,0.00,,,0.00,0.0,meteohub,2013-06-10 02:07:00,
2013-06-09 22:12:00,83.3,18.5,-100.00,SE,143,4.0,11.0,9,0.00,,,0.00,0.0,meteohub,2013-06-10 02:12:00,
2013-06-09 22:17:00,83.3,18.5,-100.00,SE,140,4.0,11.0,9,0.00,,,0.00,0.0,meteohub,2013-06-10 02:17:00,
2013-06-09 22:22:00,82.9,18.3,-100.00,South,182,2.0,11.0,9,0.00,,,0.00,0.0,meteohub,2013-06-10 02:22:00,
2013-06-09 22:32:00,82.9,18.3,-100.00,South,178,6.0,10.0,9,0.00,,,0.00,0.0,meteohub,2013-06-10 02:32:00,
2013-06-09 22:42:00,82.8,18.1,-100.00,South,171,6.0,11.0,9,0.00,,,0.00,0.0,meteohub,2013-06-10 02:42:00,
2013-06-09 22:47:00,83.1,18.5,-100.00,SSE,148,3.0,11.0,9,0.00,,,0.00,0.0,meteohub,2013-06-10 02:47:00,
2013-06-09 22:52:00,82.9,18.3,-100.00,South,191,3.0,11.0,9,0.00,,,0.00,0.0,meteohub,2013-06-10 02:52:00,
2013-06-09 22:57:00,82.8,18.1,-100.00,South,187,5.0,9.0,9,0.00,,,0.00,0.0,meteohub,2013-06-10 02:57:00,
2013-06-09 23:07:00,82.8,18.1,-100.00,SSE,163,2.0,9.0,9,0.00,,,0.00,0.0,meteohub,2013-06-10 03:07:00,
2013-06-09 23:12:00,82.6,18.0,-100.00,South,183,0.0,9.0,9,0.00,,,0.00,0.0,meteohub,2013-06-10 03:12:00,
2013-06-09 23:17:00,82.6,18.0,-100.00,SSE,156,2.0,9.0,9,0.00,,,0.00,0.0,meteohub,2013-06-10 03:17:00,
2013-06-09 23:27:00,82.8,18.1,-100.00,SE,140,4.0,9.0,9,0.00,,,0.00,0.0,meteohub,2013-06-10 03:27:00,
2013-06-09 23:32:00,82.6,18.0,-100.00,SSE,150,3.0,10.0,9,0.00,,,0.00,0.0,meteohub,2013-06-10 03:32:00,
2013-06-09 23:37:00,82.6,18.0,-100.00,SSW,210,8.0,10.0,9,0.00,,,0.00,0.0,meteohub,2013-06-10 03:37:00,
2013-06-09 23:47:00,82.8,18.1,-100.00,South,174,5.0,10.0,9,0.00,,,0.00,0.0,meteohub,2013-06-10 03:47:00,
2013-06-09 23:52:00,82.6,18.0,-100.00,SSE,152,5.0,10.0,9,0.00,,,0.00,0.0,meteohub,2013-06-10 03:52:00,
2013-06-09 23:57:00,82.6,18.0,-100.00,South,187,5.0,10.0,9,0.00,,,0.00,0.0,meteohub,2013-06-10 03:57:00,